Regional Weather Roundup
Issued by NWS

Home | Current Version | Previous Version | Text Only | Print | Product List | Glossary Off
Versions: 1 2 3 4 5 6 7 8 9 10 11 12 13 14 15 16 17 18 19 20 21 22 23 24 25 26 27 28 29 30 31 32 33 34 35 36 37 38 39 40 41 42 43 44 45 46 47 48 49 50

000
ASUS45 KBOI 270410
RWRID

IDAHO REGIONAL WEATHER ROUNDUP
NATIONAL WEATHER SERVICE BOISE ID
1000 PM MDT TUE MAY 26 2015

NOTE: "FAIR" INDICATES FEW OR NO CLOUDS BELOW 12000 FEET
WITH NO SIGNIFICANT WEATHER AND/OR OBSTRUCTIONS TO VISIBILITY

IDZ012-014-270500-
SOUTHWEST IDAHO


CITY           SKY/WX    TMP DP  RH WIND       PRES   REMARKS
BOISE          PTCLDY    68  44  42 SE7       29.87R
CALDWELL       PTCLDY    66  39  37 N14       29.88R
MOUNTAIN HOME  MOCLDY    63  45  52 S8        29.89R
$$

IDZ016-017-270500-
SOUTHCENTRAL IDAHO


CITY           SKY/WX    TMP DP  RH WIND       PRES   REMARKS
BURLEY         PTCLDY    55  44  66 S9        29.97R
JEROME         PTCLDY    57  45  64 SE8       29.97R
TWIN FALLS     CLEAR     58  42  55 S12       29.93S
$$

IDZ019>023-270500-
SOUTHEAST IDAHO


CITY           SKY/WX    TMP DP  RH WIND       PRES   REMARKS
IDAHO FALLS    RAIN      51  47  86 E10       30.06R
POCATELLO      LGT RAIN  55  46  71 N20       30.04R
REXBURG        LGT RAIN  49  46  90 SW8       30.05R
$$

IDZ006-010-011-018-031-032-270500-
CENTRAL IDAHO MOUNTAINS


CITY           SKY/WX    TMP DP  RH WIND       PRES   REMARKS
MCCALL         CLOUDY    55  41  59 N10       29.96R
HAILEY         PTCLDY    54  43  66 NW6       30.02R
STANLEY          N/A     46  36  68 CALM      30.05R
SALMON         MOCLDY    57  41  54 E5        29.92R
CHALLIS        MOCLDY    54  42  64 VRB3      29.99R
$$

IDZ002-004-006-007-026-270500-
NORTHERN IDAHO


CITY           SKY/WX    TMP DP  RH WIND       PRES   REMARKS
LEWISTON       MOCLDY    60  51  72 S6        29.94R
LOWELL           N/A     55  50  83 CALM      29.95R
COEUR D`ALENE  PTCLDY    57  48  72 E6        29.95R
MULLAN PASS    PTCLDY    42  41  96 NW3       30.04R
$$



USA.gov is the U.S. government's official web portal to all federal, state and local government web resources and services.